User: anonymous   Login
Location: Los Gatos B&B
(42.6926°N, 77.0646°W)
Time: 17:20:48
(UTC-05:00)
Language:

Cosmos 2263 Rocket - Orbit

View from above orbital plane
View from above orbital plane
View from above satellite
View from above satellite

Ground track
Ground track

The orbit data is extracted from the following two-line orbital elements,

1 22803U 93059B   18054.50391226 -.00000174  00000-0 -62938-4 0  9993
2 22803  70.9895  79.8528 0017363 354.6732   5.4204 14.16787410263874
Epoch (UTC): 23 February 2018 12:05:38
Eccentricity: 0.0017363
inclination: 70.9895°
perigee height: 824 km
apogee height: 849 km
right ascension of ascending node: 79.8528°
argument of perigee: 354.6732°
revolutions per day: 14.16787410
mean anomaly at epoch: 5.4204°
orbit number at epoch: 26387

The dashed part of the orbit path shows where the satellite is in the earth's shadow,  

DLR